Location: Lassen National Park
(40.5158°N, 121.4639°W)
Time: 21:45:22
(UTC-07:00)

Tiangong 2 - Visible Passes

Search period start: 22 March 2019 00:00
Search period end: 01 April 2019 00:00
Orbit: 380 x 390 km, 42.8° (Epoch: 22 March)

Date Brightness Start Highest point End Pass type
(mag) Time Alt. Az. Time Alt. Az. Time Alt. Az.
22 Mar 1.6 05:24:08 50° SSE 05:24:08 50° SSE 05:26:42 10° ESE visible
23 Mar 2.4 06:00:03 21° SW 06:00:36 22° SSW 06:03:10 10° SSE visible
24 Mar 3.9 05:03:51 12° SE 05:03:51 12° SE 05:04:13 10° SE visible
28 Mar 3.6 20:48:22 10° S 20:48:41 11° S 20:48:41 11° S visible
29 Mar 3.5 21:24:16 10° SW 21:25:03 16° SW 21:25:03 16° SW visible
30 Mar 2.2 20:25:08 10° SSW 20:27:51 27° SSE 20:28:57 22° ESE visible
31 Mar 0.9 21:01:45 10° WSW 21:04:53 75° SSE 21:04:56 75° SSE visible
